Regional Weather Roundup
Issued by NWS

Home | Current Version | Previous Version | Text Only | Print | Product List | Glossary Off
Versions: 1 2 3 4 5 6 7 8 9 10 11 12 13 14 15 16 17 18 19 20 21 22 23 24 25 26 27 28 29 30 31 32 33 34 35 36 37 38 39 40 41 42 43 44 45 46 47 48 49 50

000
ASUS43 KFSD 261902
RWRSD

WEATHER ROUNDUP FOR SOUTH DAKOTA
NATIONAL WEATHER SERVICE SIOUX FALLS SD
100 PM CST FRI DEC 26 2014

NOTE: "FAIR" INDICATES FEW OR NO CLOUDS BELOW 12,000 FEET WITH NO
SIGNIFICANT WEATHER AND/OR OBSTRUCTIONS TO VISIBILITY.


SDZ001>005-009-010-012>017-262000-
NORTHWEST AND NORTH CENTRAL SOUTH DAKOTA

CITY           SKY/WX    TMP DP  RH WIND       PRES   REMARKS
BUFFALO          N/A     21  13  71 NW10      30.02F WCI  10
FAITH            N/A     19   9  65 N10       30.12F WCI   7
MOBRIDGE       PTSUNNY   21  11  65 N13       30.13F WCI   9
$$

SDZ012>016-024>037-041>051-057-063-072>074-262000-
SOUTHWEST AND SOUTH CENTRAL SOUTH DAKOTA

CITY           SKY/WX    TMP DP  RH WIND       PRES   REMARKS
RAPID CTY ARPT MIX PCPN  19  14  81 N9        30.09F WCI   8
PIERRE         LGT SNOW  23  18  81 N14       30.15R WCI  11
CUSTER         CLOUDY    16  12  84 VRB3      29.92F
ELLSWORTH AFB  MIX PCPN  19  14  82 NE6       30.08F WCI  11
PHILIP         CLOUDY    22  15  75 N8        30.15R WCI  12
PINE RIDGE     CLOUDY    20  13  74 N8        30.07F WCI  10
WINNER         CLOUDY    24  19  81 N16       30.11S WCI  11
$$

SDZ004>011-016>023-039-040-262000-
NORTHEAST SOUTH DAKOTA

CITY           SKY/WX    TMP DP  RH WIND       PRES   REMARKS
ABERDEEN       CLOUDY    24  18  77 N17       30.15F WCI  11
WATERTOWN      CLOUDY    23  18  81 N14       30.08F WCI  11
$$

SDZ017-020-022-023-036>040-048>070-262000-
SOUTHEAST SOUTH DAKOTA

CITY           SKY/WX    TMP DP  RH WIND       PRES   REMARKS
SIOUX FALLS    CLOUDY    28  22  78 N15       30.03F WCI  16
HURON          CLOUDY    24  18  77 N15       30.12F WCI  11
MITCHELL       CLOUDY    25  20  81 N18       30.11F WCI  11
YANKTON        CLOUDY    28  21  74 N18G24    30.04F WCI  16
$$

ABBREVIATIONS USED IN REMARKS
   TC - TEMPERATURE IN CELSIUS
  WCI - WIND CHILL INDEX
   HX - HEAT INDEX
  VSB - VISIBILITY




USA.gov is the U.S. government's official web portal to all federal, state and local government web resources and services.